Theta_e
330 330 330 330 330 331 332 333 333 331 329 327 327 328 328 328 328 327 327 326 326 324 323 324 325 326 326 326 327 328 329 329 329 329 328 328 328 327 327 326 327 328 328 329 329 330 330 330 330 330 332 332 331 331 331 331 332 331 330 330 330 329 329 329 329 329 330 329 329 329 327 325 326 327 327 326 325 325 327 327 327 328 329 329 330
331 331 330 330 330 331 332 333 333 332 331 329 329 329 329 329 328 327 326 326 325 323 321 322 323 325 326 326 326 327 327 326 326 326 325 325 325 324 323 323 325 325 325 326 328 329 328 328 328 329 330 331 331 330 330 331 331 331 331 330 330 329 329 329 329 330 329 329 330 330 328 326 325 326 326 327 326 325 325 324 324 325 328 328 328
333 333 330 330 330 331 333 334 334 332 332 331 330 330 330 330 327 325 327 327 325 323 320 321 322 324 324 325 326 325 324 324 323 323 323 323 323 322 321 321 322 323 323 324 326 327 327 327 326 327 328 328 330 330 330 331 330 331 331 331 330 329 329 329 329 329 329 329 329 329 330 330 330 328 327 327 325 325 324 323 322 323 325 327 327
333 334 333 330 329 331 332 333 334 332 332 332 332 331 331 331 328 325 327 327 324 322 322 322 322 323 324 324 323 322 320 320 320 320 321 322 322 322 322 321 321 321 322 323 323 324 326 326 326 327 327 328 329 330 330 330 329 330 330 330 330 329 328 329 328 328 328 329 329 328 328 330 333 332 329 329 327 326 326 324 324 323 324 326 327
332 334 335 330 328 331 332 332 334 333 333 332 332 332 331 331 329 324 325 326 323 322 323 322 322 323 323 322 321 320 319 319 319 320 321 322 322 322 322 321 320 320 321 322 323 324 325 326 326 326 327 328 329 329 329 328 328 329 329 329 329 328 328 328 328 327 327 328 328 329 330 331 335 332 330 330 329 329 328 328 328 325 323 324 325
331 334 334 330 328 331 332 332 333 333 333 332 331 331 331 332 329 323 324 325 324 325 324 323 322 322 322 321 321 321 321 320 320 321 322 322 322 322 322 321 321 320 320 321 323 323 324 325 325 325 326 327 327 327 326 326 326 328 329 329 329 329 329 328 328 327 327 327 327 329 330 331 332 330 330 331 328 329 330 330 330 328 325 323 323
332 333 332 330 329 331 332 332 333 333 333 332 331 331 330 332 329 322 324 327 326 326 324 322 322 322 321 321 320 320 321 321 321 322 322 322 322 321 321 320 321 321 320 320 321 323 324 325 325 324 324 325 326 325 325 325 325 325 326 327 328 329 329 328 328 327 327 327 327 328 327 328 329 328 330 330 330 330 329 328 329 328 328 326 325
333 333 332 330 329 331 332 332 333 333 333 333 332 331 330 331 327 322 327 327 324 324 322 322 322 322 321 320 319 320 322 322 321 321 320 320 320 320 319 319 320 320 321 320 319 321 323 323 324 323 323 324 324 324 325 324 324 324 324 325 327 328 328 328 327 327 327 327 327 327 327 328 328 328 328 327 330 333 330 328 325 323 325 326 326
332 332 332 330 328 330 332 332 332 333 334 333 333 333 331 331 327 324 329 328 322 322 322 322 322 321 320 318 319 321 322 322 321 320 320 321 321 320 321 320 319 320 320 320 318 318 320 320 320 320 321 322 323 322 323 323 322 322 323 324 325 326 326 327 326 326 326 327 327 327 326 328 328 327 325 324 327 330 331 330 322 316 320 322 324
330 330 330 328 327 330 332 332 332 332 335 334 333 334 332 333 330 325 329 328 322 322 322 321 321 320 317 317 319 321 322 321 320 320 322 322 321 320 320 319 318 318 318 319 317 315 316 316 315 313 314 317 319 320 321 321 320 320 321 322 323 324 324 322 321 321 322 323 325 326 327 327 325 321 320 320 322 324 326 326 318 314 317 317 318
329 329 328 326 326 329 330 331 332 332 334 335 334 335 334 335 331 327 329 328 323 323 323 321 321 317 316 318 320 321 321 320 320 321 322 321 319 319 318 317 317 316 316 316 316 315 315 315 313 312 313 314 315 317 318 318 318 318 319 319 320 320 318 317 317 317 318 318 320 323 324 322 319 316 316 316 317 318 321 320 315 314 316 314 314
329 331 330 329 328 327 327 329 330 331 333 335 336 335 335 335 332 329 328 328 325 323 323 322 319 316 317 320 321 321 321 319 320 322 321 320 317 317 316 316 315 315 314 314 314 315 315 314 314 315 315 315 315 314 315 316 317 317 317 318 318 317 316 316 316 316 316 316 316 316 317 316 315 315 315 314 314 315 317 316 313 314 316 314 314
332 335 335 335 332 326 325 327 328 330 332 333 335 336 335 334 332 329 329 327 325 324 324 322 317 315 319 322 321 320 320 319 321 322 321 319 317 316 316 315 314 313 313 313 312 313 315 314 314 315 315 314 314 313 313 313 314 314 314 314 317 317 316 314 314 314 314 314 313 312 313 313 313 313 313 313 314 313 313 313 313 314 315 314 314
332 334 336 338 333 326 325 326 327 328 329 331 332 334 335 333 330 328 328 327 325 324 323 320 316 316 320 322 321 320 319 319 321 321 320 318 317 316 315 311 311 311 310 311 311 311 312 312 314 315 314 313 314 313 312 310 309 309 307 308 312 315 316 314 314 314 313 312 312 312 312 313 313 312 312 312 313 313 313 313 313 313 314 312 313
330 330 333 334 329 326 326 326 326 326 328 329 330 331 331 329 326 325 325 325 324 324 323 319 317 318 320 321 321 320 318 319 320 321 320 318 318 317 314 310 310 309 309 311 311 309 309 310 313 313 313 313 315 314 313 310 306 306 305 305 306 308 312 314 313 313 313 312 311 311 312 312 311 310 309 311 312 313 312 312 313 315 318 316 313
330 330 332 329 323 324 327 326 325 326 326 328 328 328 328 327 324 323 324 326 325 324 322 319 317 319 320 321 321 320 319 318 320 320 319 319 318 317 314 313 312 311 310 312 313 310 308 308 309 310 312 314 314 314 314 310 306 306 307 306 306 306 307 312 314 313 313 312 310 309 309 310 309 307 307 309 311 312 312 312 312 313 317 319 317
328 329 331 328 322 322 326 327 326 325 325 326 327 327 327 328 327 324 324 326 326 324 322 319 317 319 320 322 321 320 319 319 319 320 320 319 319 318 317 315 314 313 312 313 314 312 309 307 307 308 311 313 314 314 313 310 307 306 307 308 308 306 306 309 313 313 313 312 310 307 308 309 309 309 308 309 310 310 310 310 311 311 312 317 318
326 327 327 325 321 320 324 326 326 326 325 326 326 328 328 328 328 325 324 326 326 324 322 319 316 317 320 321 321 320 320 319 318 319 320 320 320 319 318 317 317 315 313 313 315 314 312 310 308 307 309 311 313 313 312 311 310 309 309 311 311 309 306 306 309 311 312 311 309 307 309 310 311 310 310 309 309 310 309 308 310 310 310 312 314
327 328 327 325 321 320 322 323 326 327 326 326 326 327 327 327 326 325 324 326 326 324 323 322 320 317 318 320 321 320 319 319 319 320 321 320 320 320 320 319 318 317 315 314 315 315 314 312 310 309 309 309 311 313 313 312 312 312 311 312 312 310 308 306 306 308 311 311 309 307 308 310 312 311 310 309 310 310 310 309 310 310 310 311 311
328 328 328 326 321 319 320 321 324 326 326 327 326 326 326 326 326 325 324 325 325 323 322 321 320 318 318 320 321 319 319 320 319 319 320 321 320 320 320 320 319 319 318 316 315 315 315 314 312 312 311 310 310 312 314 313 313 314 313 311 311 310 310 309 308 308 310 310 310 309 309 308 309 309 309 309 309 309 310 310 310 310 310 310 309
328 328 328 325 320 320 320 320 322 324 325 326 326 326 326 325 325 325 324 324 324 322 322 321 319 318 319 321 320 319 320 321 320 319 320 321 321 320 320 320 319 319 319 318 317 317 316 316 315 314 314 313 311 311 313 312 312 314 314 313 311 310 311 312 310 310 310 311 311 311 310 309 307 306 307 309 308 308 308 309 309 308 308 308 308
328 328 328 323 320 320 320 319 320 322 324 325 325 326 326 325 325 324 322 323 323 323 323 323 322 321 321 321 320 320 319 320 320 320 319 320 321 320 320 320 320 319 320 319 319 319 319 318 318 317 316 316 315 314 314 313 312 312 313 313 313 310 311 313 312 311 310 309 310 310 310 311 309 305 306 308 308 307 308 308 307 307 306 307 307
328 328 326 320 319 320 319 318 319 320 321 323 325 326 325 325 325 324 322 321 322 323 323 323 323 322 322 322 322 321 320 320 320 320 320 320 321 320 319 319 320 320 320 320 320 320 320 319 319 319 318 317 317 316 316 315 314 313 312 313 313 311 312 313 312 312 311 309 309 309 309 309 309 307 305 306 308 308 308 308 307 307 306 306 306
327 327 323 317 317 318 317 317 317 318 320 321 323 325 325 325 324 324 323 321 322 322 322 322 322 322 323 323 322 321 321 321 321 321 320 320 321 320 319 319 320 320 321 320 320 320 320 320 320 320 319 319 318 318 317 317 316 315 313 313 313 312 312 312 312 312 312 311 310 309 308 308 308 308 306 305 307 308 308 308 308 306 305 305 305
325 325 324 321 318 316 315 315 316 317 318 320 321 323 323 323 323 323 323 323 323 322 321 321 321 322 323 321 321 321 320 321 321 321 321 321 322 321 320 320 320 321 321 321 321 320 320 321 320 320 320 319 319 319 318 318 317 317 316 314 314 313 313 313 312 312 312 312 311 310 309 309 308 309 308 306 306 308 308 308 307 304 303 303 303
323 324 324 322 319 315 314 314 314 315 317 318 320 322 322 322 322 322 321 322 322 321 321 321 321 322 320 318 320 320 320 320 320 320 320 321 322 322 321 321 321 320 320 320 320 321 321 321 321 320 320 320 319 319 319 319 318 318 317 316 315 314 314 314 313 312 311 312 311 310 310 309 308 309 309 307 307 307 307 307 304 301 299 299 299
322 323 321 319 317 314 312 312 313 314 314 316 317 319 321 322 322 322 321 321 321 321 321 321 320 320 319 317 319 320 320 320 319 319 320 320 320 322 322 322 322 321 321 320 320 320 321 322 321 320 320 320 320 320 319 319 319 318 318 317 316 315 314 315 314 313 311 311 311 310 310 310 309 308 308 307 307 306 306 305 302 298 295 295 295
320 321 320 319 319 315 311 311 312 312 312 313 315 316 318 320 321 322 322 322 322 322 321 321 320 320 320 320 320 320 321 320 319 319 320 320 320 321 321 321 321 320 319 319 319 319 319 320 320 320 319 319 319 318 319 319 319 318 318 317 317 316 315 315 315 314 312 312 311 310 310 310 308 308 308 307 306 306 305 303 300 296 294 293 293
318 318 318 318 320 316 310 310 311 312 312 312 312 313 313 315 317 318 320 321 321 321 321 321 321 320 320 320 321 321 321 321 321 321 322 322 321 321 321 321 320 320 319 319 319 319 319 318 319 318 318 317 317 317 318 319 319 318 318 317 317 316 315 315 315 315 313 312 312 311 310 310 309 308 307 307 305 305 305 303 299 296 295 294 294
317 318 316 316 317 312 308 309 311 311 312 311 310 311 311 311 312 313 314 316 318 319 319 319 319 320 321 322 322 323 322 322 321 320 319 319 319 320 321 320 320 321 321 321 321 321 321 320 320 319 319 319 318 318 319 319 319 318 318 318 317 316 316 315 315 314 313 312 312 311 311 310 309 308 307 306 305 304 303 302 300 298 297 296 297
319 317 315 315 315 310 306 308 310 310 311 311 310 311 310 310 311 310 310 311 312 313 313 313 312 315 319 320 319 318 319 318 317 314 313 314 314 316 316 316 317 318 318 318 318 319 319 320 320 320 320 320 320 320 320 319 319 319 318 318 318 317 317 316 316 315 313 312 312 311 311 310 309 307 306 305 304 304 303 302 300 299 298 299 299
321 319 316 314 312 309 306 306 307 308 309 310 311 311 310 310 310 309 309 309 309 309 310 310 310 310 312 312 311 312 313 312 312 311 312 313 313 314 314 314 315 315 316 317 317 318 319 319 320 320 320 321 320 320 320 320 320 320 319 319 318 318 318 317 316 315 314 313 312 311 310 309 308 307 305 305 304 304 303 302 300 299 299 300 300
319 319 317 313 310 308 306 305 306 307 308 309 309 309 308 308 308 308 308 308 307 307 308 308 308 307 308 307 307 308 309 309 309 310 311 311 311 311 311 311 311 311 313 315 317 318 319 319 320 320 321 321 321 320 320 321 320 320 319 319 318 318 318 317 316 315 313 312 311 310 309 308 307 306 305 305 304 304 303 302 300 300 300 301 301
313 315 315 311 308 308 307 307 306 306 307 308 308 308 307 306 307 307 307 306 307 307 307 307 307 307 307 307 306 307 308 307 308 308 308 308 308 308 308 308 308 308 309 311 313 315 317 317 318 320 321 321 320 320 320 320 320 320 319 319 318 318 318 317 317 315 313 312 310 309 308 307 306 305 304 304 304 303 302 301 300 300 300 301 301
313 314 312 309 307 308 309 308 307 306 306 306 306 307 307 306 307 307 307 307 307 307 307 307 308 307 307 307 307 307 307 307 307 307 307 307 307 307 307 307 307 307 308 308 309 310 313 314 316 318 320 320 319 319 319 319 319 319 318 318 318 318 317 316 315 313 311 310 308 307 307 307 306 305 304 304 303 302 301 301 300 300 300 301 300
311 311 309 308 308 308 308 308 307 306 305 305 305 305 305 306 306 306 307 307 307 307 306 306 307 307 307 307 307 307 307 308 308 307 307 306 306 307 306 306 306 306 306 307 307 308 309 312 314 316 318 319 318 317 317 317 318 318 318 317 316 315 315 314 312 311 309 308 308 308 307 307 305 304 303 302 302 301 301 301 300 301 301 300 300
307 306 305 306 307 308 308 308 307 305 305 305 305 305 305 305 305 306 306 306 306 306 306 306 306 306 307 307 307 306 307 308 308 308 307 307 306 306 306 306 305 305 305 306 306 307 307 309 312 314 315 317 317 316 316 316 317 317 316 315 314 313 311 311 310 309 308 308 306 306 306 304 303 302 302 301 301 301 301 301 301 300 300 299 298
305 305 304 304 304 305 307 307 307 306 306 306 306 305 305 305 305 306 306 306 306 306 305 306 306 306 306 306 306 306 307 308 308 308 307 307 307 307 307 306 305 304 305 306 307 307 307 307 310 313 314 314 315 316 316 316 316 316 315 314 312 310 308 307 307 306 305 304 304 303 303 302 302 301 301 301 301 301 300 300 299 299 298 297 297
303 303 303 303 303 304 304 305 305 305 305 305 305 304 304 304 304 305 305 305 305 305 305 305 305 305 305 306 306 306 306 307 307 307 308 307 307 307 307 306 306 305 305 306 306 306 307 307 309 312 314 314 314 315 315 315 314 313 313 312 310 309 307 305 304 304 302 302 302 302 302 302 302 302 302 301 301 300 299 299 298 297 296 296 295
300 300 301 301 301 301 302 303 303 303 303 303 303 303 304 304 304 304 304 304 304 304 304 304 305 305 305 305 306 306 306 306 306 306 307 306 307 307 306 307 307 307 307 307 306 306 307 309 309 311 314 315 314 314 313 313 312 311 310 310 309 308 306 304 303 302 302 301 301 301 300 300 300 300 300 299 298 298 297 297 296 295 295 294 293
299 299 299 299 299 299 300 301 301 302 302 303 303 303 303 303 304 304 304 304 304 304 304 304 304 304 304 305 305 306 306 306 305 305 306 305 305 306 307 308 308 308 308 307 306 306 308 309 310 311 313 313 313 312 311 309 309 308 307 307 306 305 304 303 301 300 300 299 299 298 298 297 297 297 297 296 296 296 296 295 295 294 293 293 293
299 299 299 299 299 299 299 299 300 300 300 301 302 302 302 303 303 303 303 303 304 303 304 304 304 304 305 305 305 305 306 305 305 305 305 305 305 306 307 308 308 308 308 307 307 307 308 309 309 310 311 311 310 308 307 306 306 306 305 305 304 303 302 302 301 298 297 297 297 296 296 295 295 295 295 295 295 295 295 294 294 293 293 292 292
299 299 299 299 299 299 299 299 299 299 299 300 300 301 302 302 302 302 302 302 302 303 303 304 304 305 305 305 305 305 305 305 305 305 305 305 305 305 307 308 308 308 307 307 307 308 308 308 308 309 309 308 306 304 304 303 303 303 303 303 303 301 299 299 299 296 295 295 295 295 295 295 295 296 295 295 294 294 293 293 293 293 293 293 292
298 299 299 299 299 299 299 299 299 299 299 299 299 300 301 301 301 302 302 302 302 302 303 303 304 304 304 304 304 305 305 304 304 304 304 304 304 304 305 307 308 308 307 307 307 308 307 307 307 307 307 305 302 301 301 301 301 301 301 300 300 299 298 297 296 295 294 294 294 295 295 295 295 295 294 293 293 293 293 293 293 293 292 292 292
299 299 299 299 299 299 299 299 299 299 300 300 300 300 300 301 301 301 302 302 302 302 302 303 303 304 304 304 304 304 304 304 304 304 304 303 304 304 304 306 307 308 307 307 307 307 307 306 306 306 304 301 299 299 299 299 300 299 298 298 297 297 297 296 296 294 294 294 295 295 295 295 294 294 293 293 293 293 293 293 293 292 292 291 291
298 299 299 299 299 298 299 299 299 299 300 300 300 300 300 300 300 301 301 301 301 302 302 302 302 303 303 303 303 304 303 303 303 303 304 304 304 304 304 305 307 308 308 308 307 306 306 305 305 305 302 298 296 297 297 297 297 297 297 296 296 296 296 295 295 295 295 295 295 295 294 294 293 293 293 293 293 293 293 292 292 291 291 290 290
298 298 298 298 298 298 299 299 299 299 299 300 300 300 300 300 300 300 300 301 301 301 301 301 302 302 302 302 302 303 304 304 304 304 304 304 304 304 304 305 307 308 308 307 306 306 305 305 304 303 300 297 295 296 295 295 296 296 296 295 295 295 295 295 295 296 295 294 294 293 293 293 293 293 292 292 292 292 291 291 291 290 290 290 290
297 298 298 298 298 298 298 299 299 299 299 299 299 300 299 300 300 301 300 301 301 301 301 301 301 301 301 302 302 303 303 304 303 304 304 304 304 305 305 306 307 308 308 307 306 306 305 305 305 303 299 295 294 295 295 295 295 295 295 295 295 295 296 295 295 294 293 293 293 293 292 292 292 292 292 291 291 291 290 290 290 290 290 290 290
297 297 297 297 297 298 298 298 298 299 298 299 299 299 299 300 300 300 301 301 301 301 301 301 301 301 301 302 301 302 303 303 303 303 304 305 306 307 307 308 308 308 307 306 307 307 306 305 305 304 301 297 294 294 294 295 295 295 295 295 295 295 295 294 293 292 292 293 293 292 292 292 291 291 291 290 290 290 290 290 290 290 289 289 289
294 295 295 296 296 297 297 297 298 298 298 298 299 299 299 299 299 300 300 300 300 301 301 301 301 301 301 301 301 301 302 302 302 303 304 305 306 307 308 307 307 307 307 307 307 307 307 306 305 304 302 300 298 295 294 294 294 295 295 295 294 293 292 292 292 292 292 292 292 292 291 291 291 291 290 290 290 290 290 289 289 289 289 289 289
292 293 294 294 295 296 296 296 297 297 297 297 298 298 298 299 299 299 299 299 299 299 299 300 301 301 301 302 302 301 301 301 302 303 304 305 305 305 306 307 307 307 307 308 307 307 306 306 305 303 301 299 297 295 294 294 295 295 295 294 292 292 292 292 292 293 292 292 292 291 291 291 290 290 290 290 289 289 289 289 289 289 289 289 288
Wind_Speed
10 15 18 18 19 18 18 20 24 30 31 32 30 28 28 27 27 26 24 24 23 23 23 21 22 23 23 21 18 16 15 14 13 11 9 8 6 4 4 4 4 5 4 4 5 5 5 4 5 5 5 5 5 6 7 8 11 11 9 8 8 6 6 7 7 5 3 3 4 4 3 4 5 5 6 5 5 5 5 6 5 5 3 2 7
7 11 15 18 21 20 20 23 25 27 30 30 29 27 26 25 25 25 23 22 21 22 23 22 22 23 24 23 21 18 15 13 13 12 11 10 9 6 4 4 4 5 5 5 5 5 5 6 5 5 4 5 5 5 6 7 9 10 10 9 8 7 6 6 6 5 2 2 2 2 4 4 5 5 6 5 5 5 2 3 3 2 2 2 4
7 9 11 16 19 20 22 24 25 27 29 28 27 26 24 24 23 24 24 21 21 22 22 21 21 21 22 24 24 21 17 14 13 11 10 9 8 6 5 4 4 3 5 6 6 5 6 6 7 7 6 6 6 6 6 7 7 8 9 9 8 7 6 6 5 4 2 0 1 1 1 3 3 4 4 3 4 6 7 5 2 2 1 1 4
10 9 9 12 16 18 22 23 23 26 28 27 27 26 25 24 23 24 24 22 22 22 21 20 20 21 22 24 23 20 17 14 12 11 9 8 7 6 4 4 4 5 5 5 5 6 6 5 7 7 7 6 6 5 5 4 5 5 7 7 6 5 6 6 6 6 5 4 2 0 1 1 2 2 2 2 2 2 4 5 3 3 2 1 3
13 12 9 10 13 17 21 23 23 26 28 28 28 27 25 24 24 24 24 23 23 22 20 20 21 23 24 23 21 19 17 14 14 12 11 10 9 7 5 4 5 5 5 5 6 7 6 6 7 8 8 8 7 6 5 4 3 3 4 5 4 4 5 6 6 7 9 8 4 1 1 1 2 2 2 2 2 1 1 2 2 3 3 2 3
13 14 13 11 12 16 20 23 24 25 27 28 28 26 25 24 23 24 25 23 22 20 20 21 22 24 25 24 22 22 19 16 16 15 13 12 10 9 7 6 6 5 5 5 6 7 7 7 7 8 8 10 10 9 9 9 8 5 3 4 5 4 5 7 6 6 10 11 7 2 1 0 1 1 1 1 2 1 2 3 3 3 4 4 6
9 11 11 10 13 16 18 22 24 25 26 28 27 25 25 24 23 25 25 21 20 21 22 22 23 24 24 23 22 22 21 18 17 16 14 13 11 9 8 7 6 6 6 7 7 7 6 6 7 8 9 11 11 11 11 12 12 10 7 4 4 5 6 7 8 7 7 10 9 5 1 0 1 1 0 1 1 2 2 2 3 4 5 6 8
8 8 8 9 13 16 19 22 25 27 28 29 28 26 26 25 24 26 24 21 22 24 24 24 24 25 24 22 22 22 22 20 18 17 16 15 13 12 10 9 7 7 7 8 8 8 7 9 11 11 12 12 11 11 10 11 11 11 11 9 6 4 4 4 6 6 5 7 9 8 4 1 1 2 1 1 2 0 2 3 4 5 5 6 8
10 10 10 10 13 19 23 25 26 28 31 31 30 28 27 26 26 27 24 23 26 26 25 25 25 25 24 23 23 22 22 22 20 19 18 17 16 14 13 12 9 8 7 8 10 12 12 13 13 12 12 12 12 12 11 11 11 10 10 10 9 8 5 5 6 5 4 5 8 8 6 3 2 2 2 2 2 2 1 2 5 6 5 5 5
10 11 11 13 18 22 25 26 25 27 30 31 31 30 30 29 29 29 26 26 29 27 26 26 25 25 24 24 24 24 24 23 21 21 19 18 17 15 14 13 11 9 8 8 10 12 13 12 11 11 11 12 12 12 12 12 11 10 10 10 9 10 10 9 9 7 6 5 6 7 7 4 2 3 4 3 3 3 2 1 4 6 5 8 10
10 9 8 11 17 19 21 23 24 26 26 28 31 31 32 31 31 31 28 27 30 29 27 27 25 24 24 25 25 26 27 25 24 24 21 19 18 17 16 14 13 11 10 10 11 12 12 11 11 12 12 12 11 11 11 10 9 9 10 11 11 11 12 11 11 11 12 11 9 7 7 6 5 5 6 6 5 3 2 1 4 5 4 6 12
7 6 6 7 9 11 15 18 21 23 23 25 29 30 32 33 32 32 30 29 30 29 28 27 26 25 25 25 25 27 27 26 26 26 23 21 19 18 17 15 14 12 10 11 12 13 12 11 11 12 12 12 11 10 10 9 8 8 9 10 10 10 10 9 10 11 11 12 13 11 9 9 8 8 7 8 8 6 4 2 4 5 3 5 11
6 6 6 6 7 9 13 16 19 22 23 25 27 28 30 31 32 32 30 29 29 28 27 26 26 26 26 25 25 26 25 25 26 26 24 22 21 21 19 17 15 14 13 12 13 14 12 12 12 12 11 11 10 10 9 8 8 8 9 9 10 10 9 9 10 11 11 11 11 10 9 8 8 8 6 7 7 6 7 5 4 4 2 4 9
6 6 5 5 6 9 14 17 20 22 22 24 26 27 29 29 30 29 23 22 24 23 23 24 25 25 24 25 26 25 24 24 25 25 24 22 21 22 20 19 18 16 15 14 14 14 14 13 13 12 11 10 9 9 9 9 9 10 11 10 10 9 9 10 11 11 11 11 10 9 9 9 8 7 5 5 6 6 8 7 4 3 3 4 8
6 6 6 4 5 10 16 18 19 20 20 22 23 23 22 19 14 10 13 15 19 20 21 23 23 22 21 24 26 25 24 24 24 24 23 22 21 20 19 19 19 18 17 16 15 15 15 14 14 14 12 10 9 9 8 8 9 11 11 11 11 9 10 11 10 10 10 10 8 7 7 8 7 6 5 6 7 7 9 9 7 4 3 5 6
6 6 5 5 7 7 12 18 19 18 19 19 19 19 17 13 10 6 9 14 22 25 26 25 22 20 20 23 24 24 25 24 24 23 22 21 20 18 17 18 18 18 18 17 16 14 14 14 14 15 13 11 10 9 7 7 8 9 10 10 11 9 10 11 10 10 9 9 8 6 6 7 8 8 8 7 7 7 7 8 9 8 4 2 4
5 5 5 5 8 10 6 13 18 18 19 18 18 19 19 19 21 18 15 19 26 28 28 27 25 21 20 22 24 25 26 25 23 23 22 21 19 17 16 17 17 17 18 18 16 13 12 13 14 15 14 12 11 9 7 7 7 7 8 9 9 8 9 11 10 9 8 7 7 7 6 8 9 9 10 9 8 7 6 6 7 8 7 3 2
6 5 6 6 8 12 12 9 14 18 19 19 18 19 20 21 22 22 19 21 25 26 27 29 28 26 22 21 24 26 25 24 22 21 22 21 20 18 17 17 17 16 16 16 15 13 12 11 12 13 14 13 11 9 7 6 6 7 6 6 6 5 7 8 8 8 7 6 6 7 7 7 8 8 9 8 7 7 7 6 6 6 7 5 3
6 6 6 6 9 12 14 14 12 14 16 18 20 19 20 21 20 19 18 20 22 22 22 21 21 24 25 23 24 25 24 23 22 21 22 21 21 21 20 19 18 16 16 15 14 13 11 11 10 11 12 12 11 9 8 7 6 6 5 5 5 4 4 6 6 6 6 5 5 6 6 5 5 5 5 5 5 5 6 5 5 5 6 5 3
6 6 6 6 9 12 16 18 16 14 12 14 17 18 18 18 19 19 17 18 20 20 20 19 17 21 25 25 25 26 24 24 23 22 23 23 22 22 21 21 19 18 16 15 14 13 11 11 10 10 10 10 10 9 8 8 7 6 5 6 6 5 4 3 4 5 6 5 4 4 4 3 4 3 3 3 4 4 5 4 4 5 5 5 6
5 6 6 6 9 13 16 18 20 18 15 12 13 14 16 17 19 22 21 19 20 22 24 25 26 25 25 25 26 26 24 24 25 25 25 24 24 23 21 21 21 19 17 15 13 12 10 10 9 10 10 9 10 9 8 8 9 8 7 6 6 6 5 4 3 4 6 4 2 1 1 2 3 2 1 2 3 4 5 4 4 5 6 6 7
5 6 6 6 9 12 14 17 19 20 18 15 14 14 17 20 20 21 22 20 20 23 25 25 26 24 22 21 22 24 25 25 26 28 27 26 26 25 22 21 20 19 18 16 14 12 11 10 9 9 9 9 9 9 9 9 10 10 10 9 8 8 8 7 6 5 5 3 2 2 1 0 3 4 1 1 2 3 3 4 4 5 6 7 8
5 5 5 7 9 12 14 16 18 19 19 17 16 15 17 20 20 20 21 20 18 21 23 23 20 17 17 16 14 17 22 25 26 28 27 26 26 26 23 22 21 20 20 18 15 14 12 12 11 10 10 10 10 10 10 11 12 12 13 12 11 10 10 11 10 8 7 6 5 4 3 3 2 2 1 1 1 2 3 3 4 5 6 7 8
5 5 5 8 11 12 13 15 16 18 19 19 18 16 16 17 19 19 18 18 17 18 20 20 15 14 15 16 13 13 17 18 18 22 24 24 26 26 24 23 22 21 21 19 17 16 15 14 14 13 13 13 12 12 13 12 13 13 13 13 13 12 12 12 12 11 10 9 7 6 6 5 3 3 2 1 2 2 3 4 5 6 7 8 8
5 5 5 7 8 9 11 13 15 17 18 19 20 19 18 17 19 20 18 17 17 17 17 16 15 17 18 18 18 19 20 17 12 14 19 22 23 25 23 22 22 21 21 20 19 18 18 17 17 16 15 15 14 14 15 15 15 15 15 14 14 14 14 14 13 13 13 12 10 8 8 7 5 5 4 4 4 4 5 5 6 8 8 8 9
5 5 5 5 6 7 10 13 15 17 19 19 20 21 21 20 19 21 21 21 20 20 20 19 18 19 19 19 21 20 19 20 15 12 14 16 17 19 19 19 20 19 19 17 16 16 17 17 18 18 18 18 18 18 18 18 18 18 18 17 16 16 15 15 15 15 15 14 12 10 10 9 8 7 7 6 6 5 6 6 6 8 9 10 10
5 4 4 4 4 5 8 11 13 16 18 20 20 21 21 22 22 23 24 24 24 23 22 21 17 15 15 17 21 18 15 18 17 14 15 17 16 14 14 15 15 15 14 13 12 12 13 15 16 17 17 17 18 20 21 22 22 21 21 20 19 19 18 17 17 17 16 15 13 12 12 12 10 9 9 8 7 6 5 5 6 8 10 11 10
5 5 5 4 4 4 6 10 12 14 16 18 19 19 19 20 20 21 21 21 22 21 19 17 15 12 11 12 15 15 14 14 14 15 17 17 15 13 12 13 14 14 14 14 13 14 14 15 16 16 16 15 16 17 20 23 24 24 24 23 22 22 21 20 20 19 18 17 15 14 14 13 12 11 10 9 7 6 5 5 6 8 9 9 9
6 6 6 6 5 4 7 10 11 13 16 17 18 17 16 17 16 16 16 16 16 16 14 13 12 10 9 8 9 11 12 12 12 13 13 13 11 11 11 13 14 14 14 14 15 16 16 16 18 19 19 19 20 20 19 19 21 22 23 24 24 24 24 23 23 22 20 19 18 16 16 15 14 12 11 9 7 6 5 5 7 8 8 7 7
5 6 7 7 7 7 9 11 12 13 14 16 17 15 14 14 14 12 13 12 12 12 11 11 10 9 9 9 8 8 8 9 9 8 9 8 8 8 8 9 10 11 12 13 14 15 15 16 18 20 19 19 19 20 19 19 19 19 20 21 23 25 25 25 26 26 24 22 21 20 19 17 15 13 11 9 8 6 6 7 8 9 8 6 5
0 2 3 4 7 9 11 12 12 11 12 13 14 14 14 13 12 11 10 10 10 10 9 9 9 9 9 9 8 7 7 8 7 6 6 6 6 6 7 8 9 10 11 12 12 13 14 15 16 17 16 16 17 17 18 19 19 19 19 19 21 23 24 25 27 28 27 25 24 23 21 19 17 14 12 9 8 7 7 8 9 10 9 7 6
2 2 4 4 4 5 7 12 15 13 13 14 13 13 12 11 10 9 8 7 7 7 6 6 7 7 7 7 6 7 8 8 7 6 6 6 6 7 7 7 8 9 9 11 12 13 13 13 14 15 14 14 14 14 14 16 17 18 20 20 21 23 24 24 27 29 29 28 27 25 23 20 18 14 11 9 9 9 8 8 9 10 10 9 8
4 4 7 7 8 10 9 8 15 17 14 13 14 13 12 11 10 9 8 6 5 5 5 6 6 5 6 6 6 7 8 7 7 6 5 5 4 3 2 2 2 3 5 6 9 10 10 10 11 12 12 12 10 10 11 12 14 15 16 18 20 22 23 23 25 28 30 30 28 26 23 19 16 13 11 10 10 10 9 9 9 10 10 9 9
8 7 7 8 11 14 14 12 11 15 14 12 12 12 10 9 8 7 7 6 4 4 4 5 5 4 4 5 5 5 6 7 7 7 7 6 5 4 3 1 1 1 2 3 5 6 7 7 8 9 10 10 9 9 9 10 10 11 11 13 15 18 20 22 24 27 30 29 27 24 21 16 13 12 11 11 11 11 10 10 10 10 10 11 11
7 7 7 10 12 13 11 10 11 12 13 12 10 9 7 6 5 5 6 5 4 4 3 3 6 5 3 4 4 3 5 7 7 6 6 4 3 2 2 1 2 2 3 4 5 6 6 6 7 8 9 9 9 9 9 9 9 9 9 10 13 16 18 20 22 24 25 24 21 18 15 12 12 12 12 11 11 11 10 11 11 12 12 12 11
7 8 10 12 12 10 7 6 6 9 12 12 10 8 7 7 5 4 4 2 1 1 1 2 5 7 5 5 5 4 5 6 5 4 4 3 4 3 3 4 5 6 6 6 6 7 8 8 7 7 8 10 10 10 10 10 9 9 9 9 11 13 15 17 19 20 20 18 16 13 11 11 12 12 11 10 10 10 10 11 12 13 12 12 11
8 11 11 11 9 7 7 7 6 7 7 7 8 7 7 6 5 4 3 3 2 3 4 4 3 5 7 8 8 7 7 7 7 5 5 5 5 5 5 5 6 8 8 8 9 9 9 9 9 9 9 10 11 12 12 11 10 9 8 6 7 10 11 13 14 15 14 13 12 11 11 11 11 11 10 9 10 10 11 12 12 12 11 12 12
7 8 8 9 8 4 3 5 8 8 7 6 7 6 6 6 5 4 4 4 3 4 5 5 4 3 2 5 7 7 7 8 8 7 7 7 7 7 6 6 7 8 9 9 10 11 10 10 10 11 12 12 12 12 11 11 9 8 6 6 8 11 13 13 13 12 11 11 12 12 11 10 10 9 9 10 11 12 11 11 10 9 10 11 12
6 6 7 9 10 8 5 4 5 8 8 7 7 6 4 5 7 7 8 8 7 7 7 5 4 5 6 5 4 5 5 6 6 7 7 8 8 8 8 8 8 8 9 10 11 12 13 12 11 12 13 13 13 12 11 10 8 7 7 9 12 14 15 14 13 13 13 12 11 10 9 9 9 9 10 11 11 10 9 8 7 8 10 12 13
11 12 12 13 14 14 13 11 10 11 11 11 11 9 6 8 9 10 10 9 9 10 11 10 9 9 9 8 7 7 6 5 5 6 7 9 10 11 11 10 9 9 9 10 11 13 14 12 11 11 13 14 14 13 11 10 9 9 11 13 14 15 15 15 14 14 13 10 8 7 7 6 7 7 8 7 6 5 5 6 7 9 10 11 12
17 17 17 17 17 17 15 15 16 17 17 16 16 15 12 11 12 13 13 11 11 12 13 13 13 13 11 11 10 9 9 8 8 9 11 12 13 14 13 11 10 10 9 9 11 13 12 11 10 10 11 12 12 12 12 12 12 12 13 13 13 14 15 15 13 11 10 9 8 7 6 5 5 4 4 2 2 4 6 8 9 9 9 9 9
21 20 19 18 17 17 16 17 19 20 20 20 18 17 15 12 12 13 14 13 14 15 15 14 14 15 15 15 13 11 10 10 10 10 11 12 12 13 13 12 11 10 9 8 10 10 10 9 8 8 9 10 11 11 11 12 12 12 12 12 12 12 12 13 12 10 8 8 7 6 6 5 3 2 2 4 6 8 8 8 7 6 6 7 8
17 19 20 19 16 14 15 17 19 20 22 23 21 18 17 15 14 14 14 13 14 14 15 15 14 14 14 14 13 11 10 9 9 10 11 12 12 12 13 14 13 11 9 8 8 8 8 8 7 7 8 10 11 12 12 12 12 12 12 12 12 12 12 11 11 9 7 7 7 6 4 2 0 3 5 6 6 5 4 4 4 5 6 7 8
13 16 18 18 16 15 16 17 19 19 20 20 20 19 18 16 14 12 10 10 10 10 12 14 15 15 15 14 12 11 10 10 11 12 14 15 16 15 15 16 15 13 11 9 7 8 9 8 7 7 9 11 13 13 13 13 12 12 12 12 12 12 11 10 9 7 6 6 6 4 2 0 2 4 5 5 3 3 2 3 4 5 6 7 7
15 16 16 15 15 16 17 18 18 17 16 16 16 16 15 13 10 7 4 4 5 5 6 8 10 11 12 12 12 12 12 12 13 14 17 19 20 18 17 17 17 16 14 11 10 10 11 10 9 10 11 14 16 15 15 14 13 13 12 11 10 9 9 8 7 7 6 4 3 1 0 2 3 3 3 3 2 3 3 3 4 4 6 7 9
16 16 16 14 14 15 16 16 17 16 15 15 15 14 14 14 12 9 7 6 5 5 6 5 6 7 8 10 11 12 13 14 16 17 18 19 18 17 16 17 19 19 17 15 14 14 13 12 11 12 14 16 17 16 16 15 13 12 11 9 8 8 8 7 6 5 4 3 1 0 1 1 1 2 3 3 3 3 3 3 5 6 8 10 12
16 16 16 15 14 14 13 13 15 17 16 16 17 17 16 15 14 13 13 11 10 9 9 9 8 8 8 8 11 12 12 12 14 16 16 15 15 15 16 17 19 20 18 16 16 15 15 14 14 14 15 17 18 17 16 14 12 11 10 9 9 8 7 5 4 3 2 1 1 2 3 4 4 4 4 4 5 5 5 6 7 9 10 12 13
14 13 13 13 12 12 12 13 15 15 15 17 19 20 19 16 14 13 13 14 13 12 11 11 11 11 10 9 11 12 13 13 13 13 12 11 12 14 16 18 20 21 19 17 16 16 16 16 16 16 17 18 19 18 16 15 13 12 11 10 8 6 4 3 2 2 2 4 5 6 6 6 5 5 5 5 6 7 8 8 9 11 12 13 14
13 12 12 13 14 15 15 16 17 17 18 19 20 20 19 16 13 12 12 13 15 15 15 15 13 13 13 12 12 13 15 16 15 12 11 11 12 14 15 16 17 17 15 13 14 17 18 17 16 17 18 19 20 20 18 15 13 12 10 7 5 4 3 3 3 4 6 8 8 7 6 6 6 6 6 7 8 9 10 11 13 13 14 15 16
18 18 17 17 17 18 18 19 21 21 20 19 18 18 18 16 14 12 11 11 13 14 16 16 15 14 14 14 14 15 16 15 14 13 13 14 14 15 17 16 15 14 14 13 12 13 15 15 16 17 17 17 19 21 19 15 13 11 8 6 4 4 4 5 7 8 9 8 7 6 6 6 6 7 7 8 9 11 13 14 15 16 17 18 18
20 20 19 19 19 19 18 18 19 20 19 18 19 20 21 21 20 18 16 14 13 13 14 14 13 12 12 12 12 14 14 13 14 15 16 17 16 14 14 14 13 13 14 13 12 11 11 13 15 17 16 15 17 19 18 14 12 10 7 6 6 7 8 10 10 9 8 7 7 6 6 5 6 7 7 9 11 13 14 15 17 18 20 20 20
Wind_Direction
177 174 173 173 170 165 169 171 157 148 148 150 150 151 153 153 153 151 154 156 154 153 152 149 143 141 143 144 145 145 147 148 146 146 139 131 130 125 114 101 108 129 145 152 148 158 156 150 169 179 191 198 199 202 203 204 206 210 214 218 225 229 238 251 265 275 276 272 270 277 278 255 235 223 224 215 177 147 121 107 82 73 99 185 221
162 170 176 173 173 177 176 168 157 150 149 152 154 155 157 157 155 154 157 160 160 158 156 154 149 145 145 147 149 149 152 150 141 137 133 128 125 117 110 100 108 106 97 113 125 130 120 103 103 117 145 168 177 187 194 198 202 208 213 215 218 221 225 234 247 257 280 311 308 319 307 281 255 244 249 247 215 206 192 124 97 74 100 136 172
167 178 182 173 174 179 173 167 162 154 152 155 156 157 158 158 157 158 160 162 163 160 157 156 155 153 149 147 148 147 148 152 148 144 143 140 135 131 128 120 125 116 96 107 116 116 116 106 101 106 116 137 160 175 182 194 204 215 220 217 217 223 227 226 226 232 240 187 101 46 326 303 285 277 284 281 250 235 238 239 253 297 297 192 177
172 179 181 166 169 176 169 166 162 155 154 156 158 161 161 161 162 162 165 167 167 163 161 161 159 157 152 147 146 144 142 146 147 147 151 151 147 146 143 132 134 131 117 114 110 112 122 117 106 105 107 120 143 157 159 175 194 212 220 214 217 222 219 222 219 216 208 184 151 109 56 31 307 300 338 323 289 243 232 236 244 249 247 225 198
168 173 181 166 166 173 167 165 162 157 158 160 163 165 163 166 166 166 169 170 170 168 169 169 163 156 149 142 140 135 134 138 139 140 142 142 139 134 126 126 130 122 112 111 110 110 115 118 108 101 96 102 113 115 110 109 128 167 192 196 210 213 198 204 211 213 211 199 174 121 56 67 247 268 15 352 314 337 277 251 241 231 217 217 215
171 171 177 167 158 167 168 166 164 161 164 165 168 169 169 170 169 170 172 173 178 181 179 175 167 159 153 146 141 136 136 139 139 139 139 139 135 130 126 124 121 114 98 95 105 108 106 113 111 103 100 103 105 103 97 90 89 104 143 190 210 211 193 189 187 198 212 212 203 184 161 197 248 274 82 7 328 319 295 279 275 268 243 240 248
180 173 169 157 155 164 170 171 167 167 169 170 172 174 174 173 172 174 177 179 183 184 181 175 168 165 163 158 151 146 145 144 142 141 141 143 142 139 140 137 128 118 99 85 99 118 120 122 115 109 114 117 114 108 101 94 89 90 94 117 182 199 199 189 175 175 201 216 214 204 210 11 49 26 142 149 338 322 314 294 292 294 273 260 260
169 165 163 160 166 168 172 175 172 171 172 173 176 177 179 178 176 177 180 180 177 175 177 175 169 167 165 161 157 154 151 147 145 143 140 141 139 135 133 137 139 131 113 89 92 115 126 124 118 113 116 120 120 115 110 105 95 90 90 92 108 148 188 185 166 170 190 202 205 208 225 251 63 21 353 111 117 49 324 336 352 336 299 279 268
164 168 172 173 175 173 175 178 176 174 176 177 179 180 182 182 178 180 184 180 174 172 174 174 170 167 165 162 158 157 154 149 147 144 141 140 139 137 135 136 142 143 135 108 97 105 114 117 115 110 112 118 118 112 112 110 101 94 93 95 100 103 110 120 131 155 177 172 179 188 190 178 92 46 20 52 99 102 311 323 355 359 350 344 308
172 177 177 179 181 179 177 177 176 177 178 179 181 182 184 184 181 183 187 182 176 175 174 172 169 167 167 163 159 159 156 152 149 148 151 151 147 146 144 141 142 143 143 133 116 109 111 112 106 99 104 116 120 115 114 114 109 103 99 99 105 104 104 103 103 109 113 125 158 175 169 153 105 63 52 58 89 91 86 334 345 352 352 6 12
179 180 173 175 182 182 177 175 176 177 177 178 181 183 184 185 184 185 189 187 181 180 179 176 172 170 169 166 163 163 160 156 154 154 158 159 155 152 149 145 144 143 139 136 131 122 117 112 103 95 96 103 110 114 118 119 117 116 112 108 108 109 110 107 99 98 98 97 108 129 134 122 102 81 66 65 78 77 77 32 347 354 336 353 20
161 158 147 151 167 175 175 176 178 177 176 177 180 184 186 185 185 185 187 188 185 184 184 180 174 171 169 167 166 166 165 162 160 161 164 164 160 156 153 151 149 149 146 137 134 133 127 119 111 104 100 97 97 103 110 117 119 121 124 121 117 118 120 118 107 101 102 97 94 99 106 102 90 82 76 71 71 71 76 64 3 6 349 355 30
126 131 139 150 162 168 173 177 181 182 180 179 179 183 186 185 185 184 186 187 183 183 186 181 172 168 166 167 170 171 172 170 166 166 168 167 165 162 161 159 156 154 152 144 139 141 139 132 125 116 111 103 96 98 99 108 116 114 116 121 124 124 123 120 114 106 103 100 96 95 97 93 81 73 70 69 68 65 64 48 11 27 21 4 32
110 113 122 143 167 171 174 179 184 186 186 185 184 184 185 185 185 182 178 176 174 177 185 180 169 166 166 171 176 176 179 178 173 172 173 172 170 168 168 163 158 156 154 149 145 146 148 145 139 132 127 118 109 106 100 99 107 104 101 106 114 122 125 118 112 109 104 100 100 100 95 89 78 66 59 65 63 60 62 45 14 37 43 26 40
98 95 97 102 132 167 181 184 186 186 186 189 189 188 186 180 170 129 99 132 162 176 184 180 170 165 168 178 182 182 185 186 181 178 178 178 175 172 170 165 159 157 156 154 150 148 150 151 150 147 142 136 128 122 109 99 103 105 104 102 102 111 128 125 117 114 109 100 96 99 101 89 68 57 56 68 72 69 65 52 41 53 35 21 33
80 79 79 68 73 117 176 188 185 181 184 188 188 188 187 178 165 104 91 148 177 185 186 183 174 164 168 183 190 189 188 189 188 186 184 181 179 177 174 168 162 160 159 159 157 152 150 151 154 155 152 147 142 137 127 115 115 116 112 108 104 104 121 128 126 120 112 103 92 86 98 90 72 68 67 73 82 74 67 53 48 60 68 33 16
77 77 70 56 58 66 118 177 179 176 180 184 184 188 192 194 195 192 181 181 186 187 186 185 179 169 168 185 196 196 191 189 189 189 188 186 184 184 180 173 169 165 164 163 163 160 157 154 152 155 157 156 152 151 143 132 131 129 117 111 109 105 114 124 129 126 117 109 95 78 88 97 88 81 76 77 80 69 63 56 44 50 62 85 94
95 89 73 60 58 60 74 123 163 173 178 181 184 191 195 200 203 194 186 188 190 186 184 186 184 176 173 185 198 200 196 193 193 191 190 190 191 191 189 183 177 172 168 166 166 164 161 159 154 152 158 161 160 159 156 146 139 134 125 117 117 114 114 116 124 134 131 122 103 85 92 102 91 82 80 76 70 59 52 50 47 41 41 59 112
80 76 68 60 57 61 73 89 123 156 171 178 183 190 194 200 205 199 193 195 193 186 181 184 186 181 182 191 199 200 199 197 195 195 194 195 195 196 196 192 185 180 175 170 169 168 162 160 159 154 159 164 166 164 164 165 155 146 146 144 147 152 132 112 115 133 141 136 111 88 87 98 91 88 85 65 51 44 30 26 30 19 17 23 33
85 82 75 70 67 68 78 85 96 119 145 167 179 187 193 200 208 208 203 193 188 186 182 186 196 194 191 195 198 198 198 198 199 199 200 199 199 198 199 197 192 187 183 177 173 172 167 164 163 161 164 169 174 174 173 178 178 175 170 164 169 175 160 135 122 131 138 139 116 82 70 87 95 108 104 62 44 36 22 18 19 10 17 20 6
101 99 91 88 84 80 84 90 95 104 118 141 166 184 192 198 204 206 201 188 182 185 184 188 197 201 200 195 193 193 192 195 202 203 202 202 201 198 196 196 195 192 191 187 183 179 177 177 177 176 174 171 175 179 181 188 193 195 190 187 192 192 182 178 175 158 152 152 145 99 65 69 59 52 111 81 55 46 40 47 47 30 33 31 12
113 112 103 97 94 91 92 95 98 101 108 125 148 170 183 191 198 199 195 186 181 183 185 186 190 197 202 196 193 196 195 198 205 206 205 203 200 196 193 192 194 195 195 195 192 190 190 192 195 197 195 187 183 185 188 194 201 204 206 204 204 203 198 194 200 198 189 191 200 189 182 151 16 16 37 94 45 35 35 41 38 26 21 20 15
118 110 105 102 98 96 96 96 98 100 105 117 135 154 169 183 193 194 189 185 181 183 187 188 189 199 207 199 197 202 200 204 209 207 203 200 196 195 193 193 194 195 197 199 200 200 202 204 207 207 208 207 204 202 202 205 208 209 211 211 210 210 207 202 206 210 207 207 204 199 204 221 284 341 0 64 33 11 7 9 9 4 357 357 360
108 107 113 111 104 100 98 96 98 101 104 111 124 142 157 171 182 187 190 190 186 186 187 187 194 209 206 191 186 191 191 196 204 203 198 195 193 195 196 195 193 192 194 198 202 205 208 213 217 215 213 216 219 219 219 220 221 219 218 218 217 216 215 214 215 215 214 216 213 211 218 224 237 253 248 241 261 297 318 323 328 331 331 332 335
118 122 117 111 108 106 108 107 107 108 109 112 120 133 148 161 173 180 186 189 189 190 188 185 195 200 187 171 172 185 189 185 190 203 201 196 191 189 189 189 189 189 191 194 200 205 209 216 221 220 219 221 224 226 228 231 231 229 226 226 224 221 221 221 222 221 220 223 223 220 221 223 232 235 228 236 249 261 283 297 309 316 318 321 323
141 137 119 111 111 114 117 116 115 115 115 116 120 127 138 148 161 171 176 179 184 190 189 186 189 187 175 169 176 185 191 189 191 206 211 209 202 191 185 184 187 189 190 194 198 202 209 217 223 224 227 231 232 232 234 237 236 233 230 230 229 227 226 225 226 226 223 224 225 222 220 222 227 228 226 235 243 251 274 290 302 312 314 314 316
147 135 114 101 102 114 119 116 115 116 118 119 121 124 131 138 147 157 165 171 177 183 185 185 187 181 174 180 186 190 195 194 196 207 217 221 220 209 200 200 201 204 209 215 215 213 216 220 223 224 227 234 240 240 240 241 239 235 232 230 229 229 229 229 229 229 227 226 226 221 219 222 224 226 228 229 235 245 262 280 299 312 312 311 314
125 121 119 116 111 104 109 114 115 117 118 118 119 120 124 129 136 146 155 162 167 171 176 180 181 178 175 181 189 197 206 203 199 206 216 222 226 226 227 228 228 230 237 244 246 244 240 232 230 233 236 243 251 253 250 246 241 238 234 233 231 229 229 229 229 229 228 228 228 224 221 224 229 232 232 229 232 240 248 271 305 315 312 311 314
123 127 126 126 131 123 117 122 123 123 122 122 120 119 121 125 129 136 144 152 160 164 168 173 173 174 180 191 199 206 214 213 205 205 213 222 231 237 241 241 241 243 248 252 252 252 250 247 248 254 255 254 255 256 255 250 243 239 236 235 234 232 232 231 228 226 225 225 227 225 224 227 233 234 233 233 235 240 251 280 310 316 312 312 312
133 144 140 133 133 132 127 126 129 131 131 129 125 121 121 126 128 132 137 144 154 158 159 164 168 169 177 186 189 191 202 210 211 213 220 226 230 233 236 239 243 248 251 254 255 258 261 261 262 264 262 257 254 255 256 253 248 244 239 237 237 236 234 232 229 225 221 220 222 223 223 227 231 231 232 239 244 247 260 284 302 306 305 304 301
142 143 141 131 127 128 127 125 124 131 136 134 130 125 125 129 130 130 133 139 148 152 153 156 158 162 169 173 179 190 199 205 211 219 222 225 232 236 240 248 254 259 262 263 267 270 271 271 271 270 268 264 262 265 266 263 260 255 251 249 245 243 240 236 231 226 221 218 218 219 220 222 223 225 229 238 245 250 265 284 294 295 290 285 285
330 56 48 37 55 87 112 119 114 114 126 137 143 139 135 138 139 135 132 135 139 139 145 154 150 152 164 170 180 197 200 204 215 225 225 227 236 245 253 264 270 275 279 278 276 277 279 282 280 277 276 274 273 276 276 273 270 265 263 261 256 251 247 240 232 227 223 218 215 214 214 216 218 222 227 233 239 249 266 281 287 285 279 276 283
21 59 65 55 39 25 26 81 105 102 104 121 134 132 127 130 135 137 142 150 154 146 145 156 161 167 181 185 189 197 201 205 208 208 204 199 197 202 217 261 287 299 300 291 283 278 279 284 282 274 271 271 275 281 283 281 279 276 272 267 262 255 249 242 236 229 223 217 212 209 207 208 213 220 225 229 236 248 264 275 277 274 271 275 282
44 54 63 66 64 52 30 22 56 80 88 103 117 115 112 119 126 136 146 144 149 163 164 175 187 194 198 191 186 183 179 171 164 159 158 155 149 141 129 104 28 347 337 327 313 296 286 284 280 269 261 261 267 276 283 285 287 289 286 277 265 256 250 245 239 229 221 215 210 206 202 203 212 221 225 228 237 249 263 271 273 273 273 275 279
48 50 52 44 47 59 53 25 22 46 68 83 92 90 88 92 106 141 158 149 147 166 185 209 206 202 202 197 197 192 170 161 160 161 163 169 183 197 211 253 284 302 315 321 326 325 320 309 292 273 259 258 265 276 285 289 291 292 292 285 268 254 245 239 231 221 213 206 201 198 202 212 222 226 226 229 239 250 259 265 270 273 274 274 273
57 50 45 33 21 17 25 30 30 39 52 60 59 58 60 58 64 96 125 125 142 215 301 270 216 211 217 213 216 228 212 195 194 199 200 210 223 237 255 268 278 284 289 297 309 321 325 318 301 280 263 260 268 280 286 290 292 291 291 285 266 247 234 225 214 206 201 197 195 202 214 221 222 222 225 231 241 250 256 259 264 266 265 263 262
60 60 53 41 28 4 340 335 349 10 23 30 23 21 28 32 41 59 62 55 34 1 346 333 281 236 226 223 232 246 235 216 215 223 227 229 227 232 248 262 276 284 287 294 302 309 314 309 293 274 260 257 262 268 274 279 286 291 293 278 243 217 201 193 188 187 191 191 191 200 208 207 209 216 223 234 245 251 250 251 252 252 252 253 257
47 59 51 31 27 28 337 308 306 306 308 316 319 321 342 351 347 349 346 338 341 344 346 354 0 349 278 240 238 241 229 215 219 226 224 222 221 223 239 258 273 284 292 302 307 305 303 303 293 274 260 256 256 255 260 267 272 277 274 240 206 185 169 161 157 158 168 175 177 185 196 202 211 223 232 240 246 247 243 240 242 246 256 266 273
28 29 19 7 2 1 357 334 294 286 296 306 298 285 284 297 298 298 303 308 306 300 303 315 327 334 329 306 265 246 238 231 236 235 226 226 231 240 258 269 270 275 286 296 305 308 306 303 295 272 253 248 248 248 250 252 247 237 225 209 193 177 162 156 158 162 169 177 185 193 205 218 228 235 239 239 237 236 236 241 254 270 284 291 293
16 12 6 3 1 355 344 332 319 311 311 312 308 300 271 254 265 274 275 282 287 285 287 291 292 296 303 299 286 278 273 265 259 259 262 265 267 271 274 269 260 260 272 286 298 306 306 301 290 268 246 237 237 233 225 220 214 205 201 197 193 185 176 171 173 177 179 179 183 192 200 211 221 224 226 226 227 237 257 276 291 298 303 306 307
2 3 5 3 359 357 350 337 330 325 316 304 298 298 289 269 258 256 256 254 255 260 267 273 278 283 285 282 280 276 274 275 278 283 287 285 282 279 273 262 253 253 262 280 296 300 298 291 278 259 238 225 221 214 202 198 197 193 192 193 190 185 181 176 172 172 172 169 170 178 182 184 194 202 208 235 285 303 306 308 311 312 316 320 321
348 349 355 355 351 351 351 346 341 339 332 319 302 291 289 282 264 256 257 257 256 258 258 260 265 271 273 274 277 278 278 280 282 285 288 288 286 280 268 255 249 251 262 282 293 291 284 274 260 242 223 206 199 195 190 189 191 189 187 186 181 173 174 176 172 164 162 164 165 170 175 178 189 226 308 322 319 316 315 316 317 322 329 328 322
341 337 338 340 342 342 342 338 336 337 339 335 324 304 288 276 271 274 277 273 268 263 257 253 254 256 260 265 267 269 271 274 278 284 289 291 291 282 267 255 250 251 262 276 280 272 262 253 237 218 203 191 185 182 179 178 178 177 175 176 175 168 166 171 172 166 160 157 156 159 163 165 267 329 327 324 319 316 320 327 330 330 328 321 315
330 327 324 325 326 327 330 330 329 330 333 334 332 322 303 281 272 276 277 273 275 272 262 256 252 248 248 251 253 256 261 265 274 283 287 290 290 284 270 257 250 250 253 252 247 242 238 231 221 207 191 182 178 175 172 172 173 174 172 172 173 170 168 174 180 175 161 150 146 143 136 1 322 319 318 317 311 299 297 305 309 312 315 313 312
314 315 315 313 313 317 321 322 323 327 331 329 327 325 320 309 298 288 266 245 252 262 263 262 259 255 252 250 248 250 257 264 272 279 282 282 282 283 278 262 247 240 238 230 221 220 221 217 212 203 188 178 175 172 171 172 174 175 171 167 168 172 177 186 186 173 159 144 130 118 1 325 322 325 332 333 321 305 297 294 296 305 314 318 319
304 307 308 305 303 307 310 312 314 317 320 321 319 314 311 311 308 305 302 289 267 255 254 255 259 263 267 266 262 258 259 264 267 269 271 271 270 276 281 268 246 233 228 221 211 207 206 206 206 201 190 179 174 173 173 171 170 170 167 166 171 174 174 176 167 148 140 140 137 268 311 10 35 38 26 13 4 352 334 320 320 322 324 325 325
301 308 311 306 301 302 303 305 309 311 311 311 309 306 304 302 297 292 293 292 286 275 267 261 260 264 270 277 277 270 262 259 261 261 264 266 266 270 275 264 241 224 215 208 202 198 199 202 202 198 190 182 178 178 177 172 169 173 173 174 177 175 168 163 149 129 121 135 140 125 110 96 76 54 37 26 17 4 350 341 337 335 332 329 326
311 318 321 317 312 310 306 302 302 307 308 305 301 298 298 299 296 290 283 279 276 273 268 264 262 263 265 270 274 270 259 249 251 257 260 261 260 261 261 251 233 219 207 198 196 203 208 207 202 196 189 184 183 185 183 178 178 181 179 176 174 169 159 149 129 108 117 126 126 116 101 82 59 42 31 18 6 357 352 347 340 335 330 327 325
321 320 317 313 308 304 301 299 297 299 299 298 296 291 288 288 290 290 287 282 277 273 268 264 259 257 260 263 268 271 264 253 246 242 236 232 229 225 225 224 220 216 214 211 214 219 217 212 207 203 195 190 190 190 185 182 185 184 181 177 165 147 137 128 118 127 133 130 123 107 82 58 41 28 15 5 356 349 344 339 337 335 333 331 331
322 317 311 306 302 298 295 294 294 296 293 288 283 280 279 281 283 285 290 295 293 287 277 268 260 255 256 258 261 267 265 254 240 225 213 209 207 204 203 205 209 216 222 225 227 225 219 214 212 208 206 207 204 193 182 180 182 179 174 170 154 138 136 132 129 133 132 122 106 85 61 43 27 13 4 358 353 347 343 342 340 339 338 336 334
315 313 310 306 303 302 300 297 297 298 294 288 283 280 280 281 282 283 285 289 295 300 295 282 268 257 252 250 253 259 260 249 231 217 208 203 198 195 196 198 202 208 211 211 214 217 218 219 216 209 205 208 202 187 177 175 176 174 170 161 144 136 135 133 133 133 124 104 86 69 52 35 18 7 1 355 352 349 347 345 342 339 337 335 331